Regional Weather Roundup
Issued by NWS

Home | Current Version | Previous Version | Graphics & Text | Print | Product List | Glossary On
Versions: 1 2 3 4 5 6 7 8 9 10 11 12 13 14 15 16 17 18 19 20 21 22 23 24 25 26 27 28 29 30 31 32 33 34 35 36 37 38 39 40 41 42 43 44 45 46 47 48 49 50
000
ASUS45 KABQ 092110
RWRNM
NEW MEXICO REGIONAL WEATHER ROUNDUP
NATIONAL WEATHER SERVICE ALBUQUERQUE NM
200 PM MST TUE FEB 09 2016

NOTE: "FAIR" MEANS FEW OR NO CLOUDS BELOW 12,000 FEET AGL WITH NO
       SIGNIFICANT WEATHER OR OBSTRUCTIONS TO VISION.

      THIS PRODUCT IS RELEASED AS TWO VERSIONS.  ONE VERSION NEAR
      THE TOP OF THE HOUR CONTAINING PRELIMINARY DATA FROM ALBUQUERQUE
      AND OTHER STATIONS.  A FINAL VERSION WITH ADDITIONAL DATA IS
      ISSUED ABOUT 10 MINUTES AFTER THE HOUR.

NMZ501-503-504-510>518-092200-
NORTHWEST PLATEAU/NORTHCENTRAL MOUNTAINS

CITY           SKY/WX    TMP DP  RH WIND       PRES   REMARKS
FARMINGTON     SUNNY     49  19  30 CALM      30.37F
LOS ALAMOS     SUNNY     51  16  25 CALM      30.37F
SANTA FE       SUNNY     56  20  24 W8        30.32F
TAOS           SUNNY     46  21  36 CALM      30.38F
ANGEL FIRE     FAIR      43  12  28 SW13      30.37F

$$
NMZ402-403-502-505>509-092200-
WESTCENTRAL MOUNTAINS/SOUTHWEST MOUNTAINS

CITY           SKY/WX    TMP DP  RH WIND       PRES   REMARKS
GALLUP         SUNNY     56  13  18 NW8       30.38F
GRANTS         SUNNY     57   9  14 NW8G18    30.38F
SILVER CITY      N/A     59  16  18 SW5       30.34F

$$
NMZ407-409-411-412-092200-
SOUTHERN DESERTS

CITY           SKY/WX    TMP DP  RH WIND       PRES   REMARKS
LORDSBURG      FAIR      64  19  17 SE13G22   30.29F
DEMING         SUNNY     63  18  17 SE7       30.31F
LAS CRUCES     SUNNY     62  16  16 S3        30.32F
HOLLOMAN AFB   SUNNY     60  18  19 S1        30.30F
ALAMOGORDO     SUNNY     59  16  18 CALM      30.32F
T OR C         SUNNY     61  18  18 E5        30.30F

$$
NMZ519>523-092200-
CENTRAL VALLEYS/CENTRAL HIGHLANDS

CITY           SKY/WX    TMP DP  RH WIND       PRES   REMARKS
ALBUQUERQUE    SUNNY     58  21  24 W5        30.34F
DOUBLE EAGLE   SUNNY     59  21  23 NW7       30.35F
MORIARTY ARPT  FAIR      59  19  21 NE6       30.34F
CLINES CORNERS SUNNY     52  20  28 NW10      30.33F
BELEN          FAIR      58  19  22 N3        30.33F
SOCORRO        FAIR      60  17  18 NW5       30.32F

$$
NMZ524>526-539-540-092200-
SOUTHCENTRAL MOUNTAINS

CITY           SKY/WX    TMP DP  RH WIND       PRES   REMARKS
RUIDOSO          N/A     57  14  18 NW10      30.36F

$$
NMZ527>531-092200-
NORTHEAST HIGHLANDS/NORTHEAST PLAINS

CITY           SKY/WX    TMP DP  RH WIND       PRES   REMARKS
LAS VEGAS      SUNNY     55  17  22 S9        30.32F
RATON          SUNNY     56  11  16 SE6       30.28F
CLAYTON        SUNNY     63  15  15 N9        30.28F

$$
NMZ532>537-092200-
EASTCENTRAL PLAINS

CITY           SKY/WX    TMP DP  RH WIND       PRES   REMARKS
TUCUMCARI      SUNNY     62  14  15 NW8       30.28F
CANNON AFB     SUNNY     59  16  18 W10       30.30F
CLOVIS AIRPORT SUNNY     61  18  18 W12       30.31F

$$
NMZ028-029-538-092200-
SOUTHEAST PLAINS

CITY           SKY/WX    TMP DP  RH WIND       PRES   REMARKS
ROSWELL        SUNNY     59  17  19 SW8       30.29F
ARTESIA        SUNNY     59  19  21 VRB5G14   30.30F
CARLSBAD       SUNNY     61  19  19 S8        30.28F
HOBBS          SUNNY     61  18  18 S7        30.32F


$$



USA.gov is the U.S. government's official web portal to all federal, state and local government web resources and services.